Suggestion Search

Define a bounding box (note: it will not wrap North/South over poles). If the range is zero degrees, a bounding box will not be used to constrain the search.

Centered On °   °

Match text in the suggestion title, science rationale or special notes. The search is case-insensitive. % is a wildcard (_ for a single character).

Find
Search

You may select science themes to limit query, otherwise suggestions from all themes will be returned.

Multiple values may be selected (shift + click).

  Rows per page
12,898 records found, displaying 1 to 100.[First/Prev] 1, 2, 3, 4, 5, 6, 7, 8 [Next/Last]
ID Suggestion Title Latitude Longitude Repeat Created Observation ID
193918 Valley on low latitude crater wall -18.898 20.397 1 2021-05-12
193916 Fan in low latitude crater -23.588 20.906 1 2021-05-12
193914 Layers in low latitude crater -23.707 20.895 1 2021-05-12
193880 Channels near Flaugergues Crater -16.493 17.358 1 2021-05-11
193878 Channels near Flaugergues Crater -18.598 17.614 1 2021-05-11
193836 Channels near Flaugergues Crater -19.175 18.204 1 2021-05-10
193834 Channels near Flaugergues Crater -19.014 18.298 1 2021-05-10
193832 Channels near Flaugergues Crater -18.476 18.126 1 2021-05-10
193830 Channels in Flaugergues Crater -17.949 18.107 1 2021-05-10
193828 Channels near Flaugergues Crater -18.147 17.823 1 2021-05-10
193822 Crater near Flaugergues Crater -21.532 18.317 1 2021-05-10
193820 Channel in southern mid latitudes -20.195 16.607 1 2021-05-08
193818 Channel in southern mid latitudes -15.924 16.220 1 2021-05-08
193816 Channels in southern mid latitudes -16.088 16.286 1 2021-05-08
193814 Ridge in southern mid latitudes -15.190 16.151 1 2021-05-08
193812 Channel segment in Terra Sabaea -11.064 16.570 1 2021-05-07
193810 Ejecta in Terra Sabaea -13.500 16.812 1 2021-05-07
193774 Wind streak in southern midlatitudes -14.863 12.527 1 2021-05-06
193772 Crater in southern mid latitudes -15.614 12.372 1 2021-05-06
193770 Crater in southern mid latitudes -16.591 12.763 1 2021-05-06
193758 Channels in southern mid latitudes -16.795 12.923 1 2021-05-05
193752 Channel in southern mid latitudes -19.726 11.540 1 2021-05-04
193750 Channel in southern mid latitudes -19.659 11.656 1 2021-05-04
193712 Pits and troughs in Tempe Terra 33.522 297.099 1 2021-05-04 ESP_069302_2140
193660 Crater in Noachis Terra -20.353 11.118 1 2021-05-03
193658 Crater in Noachis Terra -21.645 11.129 1 2021-05-03
193640 Channels in Noachis Terra -26.149 6.110 1 2021-05-02
193638 Lava mound in Noachis Terra -21.981 5.565 1 2021-05-02
193636 Channel in Noachis Terra -22.045 5.488 1 2021-05-02
193634 Crater in Noachis Terra -23.034 5.584 1 2021-05-02
193596 Channels in Noachis Terra -28.291 354.165 1 2021-05-01
193594 Channels in Noachis Terra -28.133 354.166 1 2021-05-01
193592 Channel in Noachis Terra -28.558 354.227 1 2021-05-01
193566 Channel in Noachis Terra -28.870 354.316 1 2021-04-30
193562 Channel in Noachis Terra -29.253 354.196 1 2021-04-30
193556 Double crater in Noachis Terra -29.902 354.375 1 2021-04-30
193476 Channels in Noachis Terra -29.493 354.317 1 2021-04-29
193474 Channels in Noachis Terra -30.632 354.293 1 2021-04-29
193472 Crater in Noachis Terra -30.488 354.570 1 2021-04-29
193470 Channels in Noachis Terra -29.701 354.416 1 2021-04-29
193424 Crater in southern mid-latitudes -30.846 353.441 1 2021-04-28
193422 Crater ejecta in southern mid-latitudes -31.721 353.668 1 2021-04-28
193420 Channels in southern mid latitudes -30.915 353.802 1 2021-04-28
193318 Channel in southern mid latitudes -31.768 354.290 1 2021-04-27
193316 Possible fault in southern mid-latitudes -31.631 353.870 1 2021-04-27
193314 Channel in southern mid latitudes -30.791 354.109 1 2021-04-27
193210 Channels in southern mid latitudes -29.661 355.198 1 2021-04-26
193208 Channels in southern mid latitudes -29.460 355.255 1 2021-04-26
193206 Channel in southern mid latitudes -28.142 354.996 1 2021-04-26
193204 Channel in southern mid latitudes -28.095 354.728 1 2021-04-26
193202 Crater west of Newcomb Crater -23.973 357.435 1 2021-04-25
193200 Channels in Noachis Terra -19.661 359.783 1 2021-04-24
193198 Channel in Noachis Terra -20.253 359.764 1 2021-04-24
193196 Crater in Noachis Terra -20.669 359.855 1 2021-04-24
193194 Landslide in Noachis Terra -17.580 359.510 1 2021-04-23
193192 Ridge in Noachis Terra -17.252 359.460 1 2021-04-23
193148 Crater in Noachis Terra -31.414 354.787 1 2021-04-22
193146 Ridges in Noachis Terra -31.621 354.792 1 2021-04-22
193144 Ridges in Noachis Terra -31.730 355.174 1 2021-04-22
193058 Contact in southern mid latitudes -31.840 350.334 1 2021-04-21
193056 Channel in southern mid latitudes -33.767 350.639 1 2021-04-21
193054 Wind streaks in southern midlatitudes -34.457 350.494 1 2021-04-21
193052 Wind streaks in southern midlatitudes -34.090 350.567 1 2021-04-21
192958 Crater in Noachis Terra -34.271 350.046 1 2021-04-20
192956 Channels in Noachis Terra -32.644 349.578 1 2021-04-20
192954 Channels in Noachis Terra -32.598 349.759 1 2021-04-20
192952 Possible gullies in Noachis Terra -33.271 349.721 1 2021-04-20
192950 Channel in Noachis Terra -33.792 350.121 1 2021-04-20
192948 Channels in Noachis Terra -33.940 349.895 1 2021-04-20
192886 Channels in Noachis Terra -34.022 349.547 1 2021-04-19
192884 Channels in Noachis Terra -34.009 349.343 1 2021-04-19
192882 Craters in Noachis Terra -33.604 349.613 1 2021-04-18
192880 Channels in Noachis Terra -33.409 349.423 1 2021-04-18
192878 Channel in Noachis Terra -32.504 349.244 1 2021-04-18
192876 Landslides in Noachis Terra -31.669 349.031 1 2021-04-18
192874 Layers in crater in Noachis Terra -31.477 348.927 1 2021-04-18
192872 Channels in Noachis Terra -31.226 349.328 1 2021-04-18
192870 Channel in Noachis Terra -31.088 349.202 1 2021-04-18
192868 Fan on crater floor in Noachis Terra -29.539 349.021 1 2021-04-18
192802 Channels in southern mid latitudes -33.423 348.815 1 2021-04-17
192800 Channels in southern mid latitudes -33.955 349.005 1 2021-04-17
192798 Channels in southern mid latitudes -33.630 348.901 1 2021-04-17
192796 Channel in southern mid latitudes -33.491 347.842 1 2021-04-16
192744 Crater in southern mid latitudes -32.106 347.635 1 2021-04-15
192742 Channel in southern mid latitudes -30.169 347.087 1 2021-04-15
192740 Crater in southern mid latitudes -30.615 347.290 1 2021-04-15
192712 Layers around mound in northern mid-latitudes 44.838 47.500 1 2021-04-14 ESP_069034_2245
192680 Channels in Noachis Terra -34.684 346.385 1 2021-04-14
192678 Channels in Noachis Terra -34.404 346.220 1 2021-04-14
192676 Channels in Noachis Terra -32.703 346.194 1 2021-04-14
192646 Channel in southern mid latitudes -31.247 346.422 1 2021-04-13
192644 Channels in southern mid latitudes -30.383 345.974 1 2021-04-13
192642 Channels in southern mid latitudes -30.743 346.150 1 2021-04-13
192638 Channels in Noachis Terra -29.912 341.610 1 2021-04-12
192636 Channels in Noachis Terra -29.786 341.517 1 2021-04-12
192634 Crater in Noachis Terra -31.039 341.634 1 2021-04-12
192632 Channel in southern mid latitudes -29.588 341.173 1 2021-04-11
192630 Channel entering crater in southern mid latitudes -31.355 341.377 1 2021-04-11
192628 Channel in Noachis Terra -33.006 342.594 1 2021-04-10
192626 Channel in Noachis Terra -32.327 342.437 1 2021-04-10

Each suggestion is given a unique ID. A stereo suggestion will be made into a pair at the discretion of the Science Theme Lead.

Suggestion title.

Latitudes are expressed in planetocentric degrees.

Longitude are measured in degrees and range east from 0 to 360.

1 for a single suggestion, STEREO for a stereo suggestion, otherwise the number of suggestions in a seasonal or other repeat set.

The date on which the suggestion was created.

If the suggestion has been retired, a link to the observation page.

The username of the suggester.